Location: Houston
(29.7631°N, 95.3631°W)
Time: 13:38:04
(UTC-05:00)

UNISAT 6 - Pass Details

Date: 22 September 2021
Orbit: 606 x 687 km, 97.7° (Epoch: 27 October)

Event Time Altitude Azimuth Distance (km) Brightness Sun altitude
Rises 06:40:00 0° 128° (SE) 2,912 ? -7.3°
Reaches altitude 10° 06:42:56 10° 106° (ESE) 2,025 ? -6.7°
Maximum altitude 06:45:34 16° 69° (ENE) 1,695 ? -6.1°
Drops below altitude 10° 06:48:13 10° 32° (NNE) 2,062 ? -5.6°
Sets 06:51:14 0° 11° (N) 2,995 ? -4.9°
